Location: STAR School
(35.3054°N, 111.2976°W)
Time: 20:10:54
(UTC-07:00)

Vanguard 1 - Pass Details

Date: 22 October 2019
Orbit: 652 x 3831 km, 34.2° (Epoch: 19 November)

Event Time Altitude Azimuth Distance (km) Brightness Sun altitude
Exits shadow 01:50:04 17° 159° (SSE) 6,343 13.9 -56.7°
Drops below altitude 10° 01:53:41 10° 154° (SSE) 6,886 14.2 -56.1°
Sets 01:59:26 0° 147° (SSE) 7,772 14.6 -55.2°
